Tracking 31027 objects as of 19-Jul-2025
HD Live streaming from Space Station
objects crossing your sky now

CENTISPACE-1 S15

Track CENTISPACE-1 S15 now!
10-day predictions


NORAD ID: 62584
Int'l Code: 2025-007K
Perigee: 665.9 km
Apogee: 684.5 km
Inclination: 55.0 °
Period: 98.1 minutes
Semi major axis: 7046 km
RCS: Unknown
Launch date: January 13, 2025
Source: People's Republic of China (PRC)
Launch site: Yellow Sea Launch Area, China (YSLA)
Your satellite tracking list
IRIDIUM 33 DEB
Track 1 satellite(s)




NASA's NSSDC Master Catalog

Two Line Element Set (TLE):
1 62584U 25007K   25199.87177385  .00000937  00000-0  19701-3 0  9991
2 62584  54.9830  88.2076 0013196 343.5609  16.4957 14.67814569 27526
Source of the keplerian elements: AFSPC